Year,Month,Day,Hour,Minute,Value (Times are PST for temperature in C)
2013,04,24,00,00,5.90
2013,04,24,00,01,5.90
2013,04,24,00,02,5.80
2013,04,24,00,03,5.80
2013,04,24,00,04,5.80
2013,04,24,00,05,5.80
2013,04,24,00,06,5.80
2013,04,24,00,07,5.80
2013,04,24,00,08,5.80
2013,04,24,00,09,5.80
2013,04,24,00,10,5.80
2013,04,24,00,11,5.70
2013,04,24,00,12,5.70
2013,04,24,00,13,5.70
2013,04,24,00,14,5.70
2013,04,24,00,15,5.70
2013,04,24,00,16,5.70
2013,04,24,00,17,5.60
2013,04,24,00,18,5.60
2013,04,24,00,19,5.60
2013,04,24,00,20,5.60
2013,04,24,00,21,5.50
2013,04,24,00,22,5.50
2013,04,24,00,23,5.50
2013,04,24,00,24,5.40
2013,04,24,00,25,5.40
2013,04,24,00,26,5.40
2013,04,24,00,27,5.40
2013,04,24,00,28,5.40
2013,04,24,00,29,5.40
2013,04,24,00,30,5.40
2013,04,24,00,31,5.40
2013,04,24,00,32,5.40
2013,04,24,00,33,5.30
2013,04,24,00,34,5.30
2013,04,24,00,35,5.30
2013,04,24,00,36,5.30
2013,04,24,00,37,5.30
2013,04,24,00,38,5.30
2013,04,24,00,39,5.30
2013,04,24,00,40,5.30
2013,04,24,00,41,5.30
2013,04,24,00,42,5.30
2013,04,24,00,43,5.30
2013,04,24,00,44,5.30
2013,04,24,00,45,5.30
2013,04,24,00,46,5.30
2013,04,24,00,47,5.30
2013,04,24,00,48,5.30
2013,04,24,00,49,5.30
2013,04,24,00,50,5.30
2013,04,24,00,51,5.30
2013,04,24,00,52,5.30
2013,04,24,00,53,5.30
2013,04,24,00,54,5.40
2013,04,24,00,55,5.50
2013,04,24,00,56,5.60
2013,04,24,00,57,5.70
2013,04,24,00,58,5.70
2013,04,24,00,59,5.70
2013,04,24,01,00,5.70
2013,04,24,01,01,5.70
2013,04,24,01,02,5.70
2013,04,24,01,03,5.70
2013,04,24,01,04,5.70
2013,04,24,01,05,5.70
2013,04,24,01,06,5.60
2013,04,24,01,07,5.50
2013,04,24,01,08,5.50
2013,04,24,01,09,5.40
2013,04,24,01,10,5.30
2013,04,24,01,11,5.30
2013,04,24,01,12,5.30
2013,04,24,01,13,5.30
2013,04,24,01,14,5.20
2013,04,24,01,15,5.20
2013,04,24,01,16,5.20
2013,04,24,01,17,5.20
2013,04,24,01,18,5.20
2013,04,24,01,19,5.20
2013,04,24,01,20,5.20
2013,04,24,01,21,5.20
2013,04,24,01,22,5.20
2013,04,24,01,23,5.20
2013,04,24,01,24,5.20
2013,04,24,01,25,5.10
2013,04,24,01,26,5.10
2013,04,24,01,27,5.10
2013,04,24,01,28,5.10
2013,04,24,01,29,5.20
2013,04,24,01,30,5.20
2013,04,24,01,31,5.10
2013,04,24,01,32,5.10
2013,04,24,01,33,5.10
2013,04,24,01,34,5.10
2013,04,24,01,35,5.20
2013,04,24,01,36,5.20
2013,04,24,01,37,5.30
2013,04,24,01,38,5.30
2013,04,24,01,39,5.30
2013,04,24,01,40,5.30
2013,04,24,01,41,5.30
2013,04,24,01,42,5.30
2013,04,24,01,43,5.30
2013,04,24,01,44,5.30
2013,04,24,01,45,5.30
2013,04,24,01,46,5.30
2013,04,24,01,47,5.20
2013,04,24,01,48,5.20
2013,04,24,01,49,5.20
2013,04,24,01,50,5.20
2013,04,24,01,51,5.10
2013,04,24,01,52,5.10
2013,04,24,01,53,5.10
2013,04,24,01,54,5.00
2013,04,24,01,55,4.90
2013,04,24,01,56,4.90
2013,04,24,01,57,4.90
2013,04,24,01,58,4.90
2013,04,24,01,59,4.90
2013,04,24,02,00,4.90
2013,04,24,02,01,4.90
2013,04,24,02,02,4.80
2013,04,24,02,03,4.90
2013,04,24,02,04,4.90
2013,04,24,02,05,4.90
2013,04,24,02,06,4.90
2013,04,24,02,07,4.90
2013,04,24,02,08,4.80
2013,04,24,02,09,4.80
2013,04,24,02,10,4.80
2013,04,24,02,11,4.80
2013,04,24,02,12,4.80
2013,04,24,02,13,4.80
2013,04,24,02,14,4.90
2013,04,24,02,15,4.90
2013,04,24,02,16,4.90
2013,04,24,02,17,4.90
2013,04,24,02,18,5.00
2013,04,24,02,19,5.10
2013,04,24,02,20,5.20
2013,04,24,02,21,5.30
2013,04,24,02,22,5.30
2013,04,24,02,23,5.30
2013,04,24,02,24,5.30
2013,04,24,02,25,5.30
2013,04,24,02,26,5.30
2013,04,24,02,27,5.30
2013,04,24,02,28,5.30
2013,04,24,02,29,5.30
2013,04,24,02,30,5.30
2013,04,24,02,31,5.30
2013,04,24,02,32,5.30
2013,04,24,02,33,5.30
2013,04,24,02,34,5.30
2013,04,24,02,35,5.40
2013,04,24,02,36,5.40
2013,04,24,02,37,5.40
2013,04,24,02,38,5.50
2013,04,24,02,39,5.50
2013,04,24,02,40,5.50
2013,04,24,02,41,5.60
2013,04,24,02,42,5.60
2013,04,24,02,43,5.60
2013,04,24,02,44,5.50
2013,04,24,02,45,5.50
2013,04,24,02,46,5.40
2013,04,24,02,47,5.30
2013,04,24,02,48,5.30
2013,04,24,02,49,5.30
2013,04,24,02,50,5.30
2013,04,24,02,51,5.30
2013,04,24,02,52,5.30
2013,04,24,02,53,5.30
2013,04,24,02,54,5.30
2013,04,24,02,55,5.30
2013,04,24,02,56,5.30
2013,04,24,02,57,5.30
2013,04,24,02,58,5.30
2013,04,24,02,59,5.20
2013,04,24,03,00,5.20
2013,04,24,03,01,5.20
2013,04,24,03,02,5.20
2013,04,24,03,03,5.20
2013,04,24,03,04,5.20
2013,04,24,03,05,5.30
2013,04,24,03,06,5.30
2013,04,24,03,07,5.50
2013,04,24,03,08,5.50
2013,04,24,03,09,5.70
2013,04,24,03,10,5.70
2013,04,24,03,11,5.80
2013,04,24,03,12,5.90
2013,04,24,03,13,5.90
2013,04,24,03,14,6.10
2013,04,24,03,15,6.20
2013,04,24,03,16,6.20
2013,04,24,03,17,6.20
2013,04,24,03,18,6.20
2013,04,24,03,19,6.10
2013,04,24,03,20,6.10
2013,04,24,03,21,6.10
2013,04,24,03,22,6.10
2013,04,24,03,23,6.10
2013,04,24,03,24,6.10
2013,04,24,03,25,6.10
2013,04,24,03,26,6.10
2013,04,24,03,27,6.10
2013,04,24,03,28,6.10
2013,04,24,03,29,6.10
2013,04,24,03,30,6.10
2013,04,24,03,31,6.00
2013,04,24,03,32,6.00
2013,04,24,03,33,5.90
2013,04,24,03,34,5.80
2013,04,24,03,35,5.70
2013,04,24,03,36,5.70
2013,04,24,03,37,5.70
2013,04,24,03,38,5.70
2013,04,24,03,39,5.70
2013,04,24,03,40,5.70
2013,04,24,03,41,5.80
2013,04,24,03,42,5.80
2013,04,24,03,43,5.90
2013,04,24,03,44,5.90
2013,04,24,03,45,6.00
2013,04,24,03,46,6.00
2013,04,24,03,47,6.00
2013,04,24,03,48,6.00
2013,04,24,03,49,6.00
2013,04,24,03,50,6.00
2013,04,24,03,51,6.00
2013,04,24,03,52,6.10
2013,04,24,03,53,6.10
2013,04,24,03,54,6.20
2013,04,24,03,55,6.30
2013,04,24,03,56,6.40
2013,04,24,03,57,6.40
2013,04,24,03,58,6.50
2013,04,24,03,59,6.60
2013,04,24,04,00,6.60
2013,04,24,04,01,6.60
2013,04,24,04,02,6.70
2013,04,24,04,03,6.70
2013,04,24,04,04,6.80
2013,04,24,04,05,6.80
2013,04,24,04,06,6.80
2013,04,24,04,07,6.80
2013,04,24,04,08,6.80
2013,04,24,04,09,6.80
2013,04,24,04,10,6.80
2013,04,24,04,11,6.80
2013,04,24,04,12,6.70
2013,04,24,04,13,6.60
2013,04,24,04,14,6.60
2013,04,24,04,15,6.50
2013,04,24,04,16,6.40
2013,04,24,04,17,6.30
2013,04,24,04,18,6.20
2013,04,24,04,19,6.20
2013,04,24,04,20,6.10
2013,04,24,04,21,6.00
2013,04,24,04,22,6.00
2013,04,24,04,23,5.90
2013,04,24,04,24,5.90
2013,04,24,04,25,5.80
2013,04,24,04,26,5.80
2013,04,24,04,27,5.70
2013,04,24,04,28,5.70
2013,04,24,04,29,5.70
2013,04,24,04,30,5.70
2013,04,24,04,31,5.60
2013,04,24,04,32,5.60
2013,04,24,04,33,5.50
2013,04,24,04,34,5.50
2013,04,24,04,35,5.40
2013,04,24,04,36,5.30
2013,04,24,04,37,5.30
2013,04,24,04,38,5.20
2013,04,24,04,39,5.10
2013,04,24,04,40,5.10
2013,04,24,04,41,5.00
2013,04,24,04,42,4.90
2013,04,24,04,43,4.90
2013,04,24,04,44,4.90
2013,04,24,04,45,4.80
2013,04,24,04,46,4.80
2013,04,24,04,47,4.70
2013,04,24,04,48,4.70
2013,04,24,04,49,4.60
2013,04,24,04,50,4.60
2013,04,24,04,51,4.60
2013,04,24,04,52,4.60
2013,04,24,04,53,4.60
2013,04,24,04,54,4.50
2013,04,24,04,55,4.50
2013,04,24,04,56,4.50
2013,04,24,04,57,4.60
2013,04,24,04,58,4.60
2013,04,24,04,59,4.60
2013,04,24,05,00,4.60
2013,04,24,05,01,4.60
2013,04,24,05,02,4.60
2013,04,24,05,03,4.50
2013,04,24,05,04,4.50
2013,04,24,05,05,4.50
2013,04,24,05,06,4.50
2013,04,24,05,07,4.50
2013,04,24,05,08,4.50
2013,04,24,05,09,4.50
2013,04,24,05,10,4.50
2013,04,24,05,11,4.50
2013,04,24,05,12,4.50
2013,04,24,05,13,4.50
2013,04,24,05,14,4.50
2013,04,24,05,15,4.40
2013,04,24,05,16,4.30
2013,04,24,05,17,4.30
2013,04,24,05,18,4.20
2013,04,24,05,19,4.20
2013,04,24,05,20,4.20
2013,04,24,05,21,4.20
2013,04,24,05,22,4.20
2013,04,24,05,23,4.20
2013,04,24,05,24,4.20
2013,04,24,05,25,4.20
2013,04,24,05,26,4.20
2013,04,24,05,27,4.20
2013,04,24,05,28,4.20
2013,04,24,05,29,4.20
2013,04,24,05,30,4.20
2013,04,24,05,31,4.20
2013,04,24,05,32,4.20
2013,04,24,05,33,4.20
2013,04,24,05,34,4.30
2013,04,24,05,35,4.30
2013,04,24,05,36,4.30
2013,04,24,05,37,4.40
2013,04,24,05,38,4.50
2013,04,24,05,39,4.50
2013,04,24,05,40,4.60
2013,04,24,05,41,4.70
2013,04,24,05,42,4.80
2013,04,24,05,43,4.80
2013,04,24,05,44,4.90
2013,04,24,05,45,4.90
2013,04,24,05,46,4.90
2013,04,24,05,47,5.00
2013,04,24,05,48,5.10
2013,04,24,05,49,5.10
2013,04,24,05,50,5.10
2013,04,24,05,51,5.20
2013,04,24,05,52,5.30
2013,04,24,05,53,5.30
2013,04,24,05,54,5.30
2013,04,24,05,55,5.30
2013,04,24,05,56,5.20
2013,04,24,05,57,5.20
2013,04,24,05,58,5.20
2013,04,24,05,59,5.20
2013,04,24,06,00,5.30
2013,04,24,06,01,5.30
2013,04,24,06,02,5.30
2013,04,24,06,03,5.30
2013,04,24,06,04,5.30
2013,04,24,06,05,5.30
2013,04,24,06,06,5.30
2013,04,24,06,07,5.30
2013,04,24,06,08,5.20
2013,04,24,06,09,5.20
2013,04,24,06,10,5.10
2013,04,24,06,11,5.10
2013,04,24,06,12,5.10
2013,04,24,06,13,5.00
2013,04,24,06,14,4.90
2013,04,24,06,15,4.80
2013,04,24,06,16,4.70
2013,04,24,06,17,4.70
2013,04,24,06,18,4.60
2013,04,24,06,19,4.60
2013,04,24,06,20,4.60
2013,04,24,06,21,4.60
2013,04,24,06,22,4.70
2013,04,24,06,23,4.70
2013,04,24,06,24,4.70
2013,04,24,06,25,4.80
2013,04,24,06,26,4.80
2013,04,24,06,27,4.90
2013,04,24,06,28,5.00
2013,04,24,06,29,5.10
2013,04,24,06,30,5.20
2013,04,24,06,31,5.30
2013,04,24,06,32,5.40
2013,04,24,06,33,5.50
2013,04,24,06,34,5.60
2013,04,24,06,35,5.60
2013,04,24,06,36,5.50
2013,04,24,06,37,5.40
2013,04,24,06,38,5.40
2013,04,24,06,39,5.30
2013,04,24,06,40,5.30
2013,04,24,06,41,5.30
2013,04,24,06,42,5.20
2013,04,24,06,43,5.10
2013,04,24,06,44,5.10
2013,04,24,06,45,5.10
2013,04,24,06,46,5.10
2013,04,24,06,47,5.10
2013,04,24,06,48,5.10
2013,04,24,06,49,5.10
2013,04,24,06,50,5.10
2013,04,24,06,51,5.10
2013,04,24,06,52,5.10
2013,04,24,06,53,5.10
2013,04,24,06,54,5.10
2013,04,24,06,55,5.20
2013,04,24,06,56,5.30
2013,04,24,06,57,5.30
2013,04,24,06,58,5.40
2013,04,24,06,59,5.50
2013,04,24,07,00,5.60
2013,04,24,07,01,5.70
2013,04,24,07,02,5.70
2013,04,24,07,03,5.80
2013,04,24,07,04,5.90
2013,04,24,07,05,6.00
2013,04,24,07,06,6.10
2013,04,24,07,07,6.20
2013,04,24,07,08,6.20
2013,04,24,07,09,6.30
2013,04,24,07,10,6.40
2013,04,24,07,11,6.60
2013,04,24,07,12,6.70
2013,04,24,07,13,6.80
2013,04,24,07,14,6.90
2013,04,24,07,15,7.00
2013,04,24,07,16,7.10
2013,04,24,07,17,7.30
2013,04,24,07,18,7.40
2013,04,24,07,19,7.50
2013,04,24,07,20,7.60
2013,04,24,07,21,7.70
2013,04,24,07,22,7.80
2013,04,24,07,23,7.90
2013,04,24,07,24,8.00
2013,04,24,07,25,8.10
2013,04,24,07,26,8.20
2013,04,24,07,27,8.30
2013,04,24,07,28,8.40
2013,04,24,07,29,8.50
2013,04,24,07,30,8.60
2013,04,24,07,31,8.70
2013,04,24,07,32,8.80
2013,04,24,07,33,8.80
2013,04,24,07,34,8.90
2013,04,24,07,35,9.00
2013,04,24,07,36,9.00
2013,04,24,07,37,9.10
2013,04,24,07,38,9.20
2013,04,24,07,39,9.20
2013,04,24,07,40,9.20
2013,04,24,07,41,9.30
2013,04,24,07,42,9.40
2013,04,24,07,43,9.40
2013,04,24,07,44,9.50
2013,04,24,07,45,9.60
2013,04,24,07,46,9.60
2013,04,24,07,47,9.70
2013,04,24,07,48,9.70
2013,04,24,07,49,9.80
2013,04,24,07,50,9.90
2013,04,24,07,51,9.90
2013,04,24,07,52,10.00
2013,04,24,07,53,10.10
2013,04,24,07,54,10.10
2013,04,24,07,55,10.20
2013,04,24,07,56,10.30
2013,04,24,07,57,10.30
2013,04,24,07,58,10.40
2013,04,24,07,59,10.40
2013,04,24,08,00,10.50
2013,04,24,08,01,10.60
2013,04,24,08,02,10.60
2013,04,24,08,03,10.70
2013,04,24,08,04,10.80
2013,04,24,08,05,10.90
2013,04,24,08,06,10.90
2013,04,24,08,07,11.00
2013,04,24,08,08,11.10
2013,04,24,08,09,11.10
2013,04,24,08,10,11.20
2013,04,24,08,11,11.30
2013,04,24,08,12,11.40
2013,04,24,08,13,11.40
2013,04,24,08,14,11.50
2013,04,24,08,15,11.70
2013,04,24,08,16,11.80
2013,04,24,08,17,11.90
2013,04,24,08,18,11.90
2013,04,24,08,19,12.00
2013,04,24,08,20,12.00
2013,04,24,08,21,12.10
2013,04,24,08,22,12.20
2013,04,24,08,23,12.20
2013,04,24,08,24,12.30
2013,04,24,08,25,12.30
2013,04,24,08,26,12.40
2013,04,24,08,27,12.60
2013,04,24,08,28,12.70
2013,04,24,08,29,12.80
2013,04,24,08,30,12.80
2013,04,24,08,31,12.90
2013,04,24,08,32,12.90
2013,04,24,08,33,13.00
2013,04,24,08,34,13.00
2013,04,24,08,35,13.10
2013,04,24,08,36,13.00
2013,04,24,08,37,13.00
2013,04,24,08,38,13.00
2013,04,24,08,39,13.00
2013,04,24,08,40,13.10
2013,04,24,08,41,13.10
2013,04,24,08,42,13.20
2013,04,24,08,43,13.10
2013,04,24,08,44,13.10
2013,04,24,08,45,13.20
2013,04,24,08,46,13.20
2013,04,24,08,47,13.30
2013,04,24,08,48,13.30
2013,04,24,08,49,13.30
2013,04,24,08,50,13.40
2013,04,24,08,51,13.40
2013,04,24,08,52,13.50
2013,04,24,08,53,13.50
2013,04,24,08,54,13.60
2013,04,24,08,55,13.60
2013,04,24,08,56,13.60
2013,04,24,08,57,13.60
2013,04,24,08,58,13.60
2013,04,24,08,59,13.60
2013,04,24,09,00,13.60
2013,04,24,09,01,13.60
2013,04,24,09,02,13.50
2013,04,24,09,03,13.50
2013,04,24,09,04,13.50
2013,04,24,09,05,13.50
2013,04,24,09,06,13.40
2013,04,24,09,07,13.50
2013,04,24,09,08,13.50
2013,04,24,09,09,13.60
2013,04,24,09,10,13.60
2013,04,24,09,11,13.70
2013,04,24,09,12,13.70
2013,04,24,09,13,13.80
2013,04,24,09,14,13.90
2013,04,24,09,15,13.90
2013,04,24,09,16,14.00
2013,04,24,09,17,14.10
2013,04,24,09,18,14.30
2013,04,24,09,19,14.50
2013,04,24,09,20,14.50
2013,04,24,09,21,14.40
2013,04,24,09,22,14.40
2013,04,24,09,23,14.40
2013,04,24,09,24,14.50
2013,04,24,09,25,14.50
2013,04,24,09,26,14.40
2013,04,24,09,27,14.40
2013,04,24,09,28,14.50
2013,04,24,09,29,14.40
2013,04,24,09,30,14.30
2013,04,24,09,31,14.20
2013,04,24,09,32,14.10
2013,04,24,09,33,14.00
2013,04,24,09,34,13.90
2013,04,24,09,35,13.90
2013,04,24,09,36,14.00
2013,04,24,09,37,14.10
2013,04,24,09,38,14.20
2013,04,24,09,39,14.20
2013,04,24,09,40,14.10
2013,04,24,09,41,14.00
2013,04,24,09,42,13.90
2013,04,24,09,43,14.00
2013,04,24,09,44,14.00
2013,04,24,09,45,14.00
2013,04,24,09,46,13.90
2013,04,24,09,47,13.90
2013,04,24,09,48,13.90
2013,04,24,09,49,14.10
2013,04,24,09,50,14.20
2013,04,24,09,51,14.20
2013,04,24,09,52,14.30
2013,04,24,09,53,14.40
2013,04,24,09,54,14.30
2013,04,24,09,55,14.40
2013,04,24,09,56,14.50
2013,04,24,09,57,14.60
2013,04,24,09,58,14.80
2013,04,24,09,59,14.80
2013,04,24,10,00,14.70
2013,04,24,10,01,14.70
2013,04,24,10,02,14.80
2013,04,24,10,03,14.90
2013,04,24,10,04,14.90
2013,04,24,10,05,14.90
2013,04,24,10,06,14.90
2013,04,24,10,07,14.90
2013,04,24,10,08,14.70
2013,04,24,10,09,14.60
2013,04,24,10,10,14.50
2013,04,24,10,11,14.60
2013,04,24,10,12,14.80
2013,04,24,10,13,14.80
2013,04,24,10,14,14.90
2013,04,24,10,15,14.90
2013,04,24,10,16,15.00
2013,04,24,10,17,15.10
2013,04,24,10,18,15.00
2013,04,24,10,19,15.00
2013,04,24,10,20,14.90
2013,04,24,10,21,15.00
2013,04,24,10,22,15.10
2013,04,24,10,23,15.10
2013,04,24,10,24,15.20
2013,04,24,10,25,15.20
2013,04,24,10,26,15.30
2013,04,24,10,27,15.30
2013,04,24,10,28,15.20
2013,04,24,10,29,15.10
2013,04,24,10,30,15.00
2013,04,24,10,31,14.90
2013,04,24,10,32,14.90
2013,04,24,10,33,15.00
2013,04,24,10,34,15.00
2013,04,24,10,35,15.00
2013,04,24,10,36,15.00
2013,04,24,10,37,15.00
2013,04,24,10,38,15.00
2013,04,24,10,39,15.00
2013,04,24,10,40,15.10
2013,04,24,10,41,15.10
2013,04,24,10,42,15.20
2013,04,24,10,43,15.30
2013,04,24,10,44,15.40
2013,04,24,10,45,15.50
2013,04,24,10,46,15.60
2013,04,24,10,47,15.70
2013,04,24,10,48,15.80
2013,04,24,10,49,15.90
2013,04,24,10,50,15.80
2013,04,24,10,51,15.80
2013,04,24,10,52,15.80
2013,04,24,10,53,15.80
2013,04,24,10,54,15.80
2013,04,24,10,55,15.70
2013,04,24,10,56,15.60
2013,04,24,10,57,15.50
2013,04,24,10,58,15.50
2013,04,24,10,59,15.60
2013,04,24,11,00,15.70
2013,04,24,11,01,15.70
2013,04,24,11,02,15.60
2013,04,24,11,03,15.60
2013,04,24,11,04,15.70
2013,04,24,11,05,15.60
2013,04,24,11,06,15.50
2013,04,24,11,07,15.50
2013,04,24,11,08,15.40
2013,04,24,11,09,15.40
2013,04,24,11,10,15.30
2013,04,24,11,11,15.30
2013,04,24,11,12,15.30
2013,04,24,11,13,15.30
2013,04,24,11,14,15.30
2013,04,24,11,15,15.30
2013,04,24,11,16,15.40
2013,04,24,11,17,15.40
2013,04,24,11,18,15.60
2013,04,24,11,19,15.70
2013,04,24,11,20,15.90
2013,04,24,11,21,16.10
2013,04,24,11,22,16.30
2013,04,24,11,23,16.40
2013,04,24,11,24,16.40
2013,04,24,11,25,16.30
2013,04,24,11,26,16.40
2013,04,24,11,27,16.40
2013,04,24,11,28,16.50
2013,04,24,11,29,16.60
2013,04,24,11,30,16.70
2013,04,24,11,31,16.60
2013,04,24,11,32,16.50
2013,04,24,11,33,16.30
2013,04,24,11,34,16.20
2013,04,24,11,35,16.10
2013,04,24,11,36,16.20
2013,04,24,11,37,16.30
2013,04,24,11,38,16.30
2013,04,24,11,39,16.20
2013,04,24,11,40,16.30
2013,04,24,11,41,16.30
2013,04,24,11,42,16.30
2013,04,24,11,43,16.30
2013,04,24,11,44,16.20
2013,04,24,11,45,16.20
2013,04,24,11,46,16.30
2013,04,24,11,47,16.30
2013,04,24,11,48,16.20
2013,04,24,11,49,16.10
2013,04,24,11,50,16.10
2013,04,24,11,51,16.20
2013,04,24,11,52,16.40
2013,04,24,11,53,16.40
2013,04,24,11,54,16.60
2013,04,24,11,55,16.70
2013,04,24,11,56,16.70
2013,04,24,11,57,16.70
2013,04,24,11,58,16.70
2013,04,24,11,59,16.70
2013,04,24,12,00,16.70
2013,04,24,12,01,16.70
2013,04,24,12,02,16.70
2013,04,24,12,03,16.70
2013,04,24,12,04,16.70
2013,04,24,12,05,16.70
2013,04,24,12,06,16.70
2013,04,24,12,07,16.70
2013,04,24,12,08,16.70
2013,04,24,12,09,16.70
2013,04,24,12,10,16.70
2013,04,24,12,11,16.70
2013,04,24,12,12,16.70
2013,04,24,12,13,16.80
2013,04,24,12,14,17.00
2013,04,24,12,15,17.00
2013,04,24,12,16,17.00
2013,04,24,12,17,16.90
2013,04,24,12,18,16.70
2013,04,24,12,19,16.70
2013,04,24,12,20,16.70
2013,04,24,12,21,16.70
2013,04,24,12,22,16.80
2013,04,24,12,23,16.90
2013,04,24,12,24,16.80
2013,04,24,12,25,16.70
2013,04,24,12,26,16.70
2013,04,24,12,27,16.70
2013,04,24,12,28,16.60
2013,04,24,12,29,16.40
2013,04,24,12,30,16.40
2013,04,24,12,31,16.50
2013,04,24,12,32,16.70
2013,04,24,12,33,16.80
2013,04,24,12,34,16.70
2013,04,24,12,35,16.70
2013,04,24,12,36,16.80
2013,04,24,12,37,16.70
2013,04,24,12,38,16.50
2013,04,24,12,39,16.30
2013,04,24,12,40,16.30
2013,04,24,12,41,16.30
2013,04,24,12,42,16.40
2013,04,24,12,43,16.50
2013,04,24,12,44,16.60
2013,04,24,12,45,16.60
2013,04,24,12,46,16.70
2013,04,24,12,47,16.60
2013,04,24,12,48,16.40
2013,04,24,12,49,16.40
2013,04,24,12,50,16.50
2013,04,24,12,51,16.70
2013,04,24,12,52,16.80
2013,04,24,12,53,16.90
2013,04,24,12,54,17.10
2013,04,24,12,55,17.20
2013,04,24,12,56,17.30
2013,04,24,12,57,17.30
2013,04,24,12,58,17.20
2013,04,24,12,59,17.20
2013,04,24,13,00,17.30
2013,04,24,13,01,17.50
2013,04,24,13,02,17.60
2013,04,24,13,03,17.60
2013,04,24,13,04,17.60
2013,04,24,13,05,17.60
2013,04,24,13,06,17.50
2013,04,24,13,07,17.40
2013,04,24,13,08,17.30
2013,04,24,13,09,17.30
2013,04,24,13,10,17.30
2013,04,24,13,11,17.40
2013,04,24,13,12,17.50
2013,04,24,13,13,17.60
2013,04,24,13,14,17.80
2013,04,24,13,15,17.90
2013,04,24,13,16,18.00
2013,04,24,13,17,18.10
2013,04,24,13,18,18.10
2013,04,24,13,19,18.10
2013,04,24,13,20,18.10
2013,04,24,13,21,18.10
2013,04,24,13,22,18.10
2013,04,24,13,23,18.10
2013,04,24,13,24,18.10
2013,04,24,13,25,18.10
2013,04,24,13,26,18.00
2013,04,24,13,27,17.90
2013,04,24,13,28,17.80
2013,04,24,13,29,17.70
2013,04,24,13,30,17.50
2013,04,24,13,31,17.50
2013,04,24,13,32,17.40
2013,04,24,13,33,17.40
2013,04,24,13,34,17.40
2013,04,24,13,35,17.50
2013,04,24,13,36,17.50
2013,04,24,13,37,17.60
2013,04,24,13,38,17.70
2013,04,24,13,39,17.80
2013,04,24,13,40,17.90
2013,04,24,13,41,17.90
2013,04,24,13,42,18.00
2013,04,24,13,43,18.20
2013,04,24,13,44,18.20
2013,04,24,13,45,18.20
2013,04,24,13,46,18.20
2013,04,24,13,47,18.10
2013,04,24,13,48,18.10
2013,04,24,13,49,18.10
2013,04,24,13,50,18.00
2013,04,24,13,51,17.90
2013,04,24,13,52,17.90
2013,04,24,13,53,17.90
2013,04,24,13,54,17.80
2013,04,24,13,55,17.70
2013,04,24,13,56,17.80
2013,04,24,13,57,17.90
2013,04,24,13,58,17.90
2013,04,24,13,59,18.00
2013,04,24,14,00,18.10
2013,04,24,14,01,18.00
2013,04,24,14,02,17.90
2013,04,24,14,03,17.80
2013,04,24,14,04,17.60
2013,04,24,14,05,17.50
2013,04,24,14,06,17.50
2013,04,24,14,07,17.50
2013,04,24,14,08,17.50
2013,04,24,14,09,17.50
2013,04,24,14,10,17.60
2013,04,24,14,11,17.70
2013,04,24,14,12,17.70
2013,04,24,14,13,17.80
2013,04,24,14,14,17.80
2013,04,24,14,15,17.80
2013,04,24,14,16,17.90
2013,04,24,14,17,17.90
2013,04,24,14,18,17.90
2013,04,24,14,19,18.10
2013,04,24,14,20,18.10
2013,04,24,14,21,18.10
2013,04,24,14,22,18.20
2013,04,24,14,23,18.20
2013,04,24,14,24,18.40
2013,04,24,14,25,18.50
2013,04,24,14,26,18.60
2013,04,24,14,27,18.70
2013,04,24,14,28,18.70
2013,04,24,14,29,18.80
2013,04,24,14,30,18.90
2013,04,24,14,31,18.90
2013,04,24,14,32,18.80
2013,04,24,14,33,18.70
2013,04,24,14,34,18.70
2013,04,24,14,35,18.70
2013,04,24,14,36,18.80
2013,04,24,14,37,18.70
2013,04,24,14,38,18.70
2013,04,24,14,39,18.70
2013,04,24,14,40,18.70
2013,04,24,14,41,18.60
2013,04,24,14,42,18.40
2013,04,24,14,43,18.30
2013,04,24,14,44,18.20
2013,04,24,14,45,18.10
2013,04,24,14,46,18.10
2013,04,24,14,47,18.20
2013,04,24,14,48,18.40
2013,04,24,14,49,18.50
2013,04,24,14,50,18.60
2013,04,24,14,51,18.70
2013,04,24,14,52,18.80
2013,04,24,14,53,18.80
2013,04,24,14,54,18.80
2013,04,24,14,55,18.80
2013,04,24,14,56,18.60
2013,04,24,14,57,18.50
2013,04,24,14,58,18.30
2013,04,24,14,59,18.10
2013,04,24,15,00,17.90
2013,04,24,15,01,17.70
2013,04,24,15,02,17.50
2013,04,24,15,03,17.50
2013,04,24,15,04,17.70
2013,04,24,15,05,17.70
2013,04,24,15,06,17.70
2013,04,24,15,07,17.70
2013,04,24,15,08,17.70
2013,04,24,15,09,17.90
2013,04,24,15,10,18.00
2013,04,24,15,11,18.00
2013,04,24,15,12,17.90
2013,04,24,15,13,18.00
2013,04,24,15,14,18.20
2013,04,24,15,15,18.20
2013,04,24,15,16,18.30
2013,04,24,15,17,18.40
2013,04,24,15,18,18.40
2013,04,24,15,19,18.50
2013,04,24,15,20,18.50
2013,04,24,15,21,18.60
2013,04,24,15,22,18.70
2013,04,24,15,23,18.80
2013,04,24,15,24,18.80
2013,04,24,15,25,18.70
2013,04,24,15,26,18.60
2013,04,24,15,27,18.70
2013,04,24,15,28,18.80
2013,04,24,15,29,18.80
2013,04,24,15,30,18.80
2013,04,24,15,31,18.60
2013,04,24,15,32,18.50
2013,04,24,15,33,18.50
2013,04,24,15,34,18.60
2013,04,24,15,35,18.50
2013,04,24,15,36,18.50
2013,04,24,15,37,18.40
2013,04,24,15,38,18.30
2013,04,24,15,39,18.20
2013,04,24,15,40,18.20
2013,04,24,15,41,18.00
2013,04,24,15,42,17.80
2013,04,24,15,43,17.70
2013,04,24,15,44,17.60
2013,04,24,15,45,17.50
2013,04,24,15,46,17.50
2013,04,24,15,47,17.50
2013,04,24,15,48,17.40
2013,04,24,15,49,17.50
2013,04,24,15,50,17.40
2013,04,24,15,51,17.30
2013,04,24,15,52,17.30
2013,04,24,15,53,17.30
2013,04,24,15,54,17.30
2013,04,24,15,55,17.30
2013,04,24,15,56,17.40
2013,04,24,15,57,17.40
2013,04,24,15,58,17.20
2013,04,24,15,59,16.90
2013,04,24,16,00,16.80
2013,04,24,16,01,16.80
2013,04,24,16,02,16.90
2013,04,24,16,03,16.90
2013,04,24,16,04,17.00
2013,04,24,16,05,17.10
2013,04,24,16,06,17.20
2013,04,24,16,07,17.10
2013,04,24,16,08,17.10
2013,04,24,16,09,17.00
2013,04,24,16,10,16.80
2013,04,24,16,11,16.60
2013,04,24,16,12,16.40
2013,04,24,16,13,16.30
2013,04,24,16,14,16.10
2013,04,24,16,15,16.10
2013,04,24,16,16,16.10
2013,04,24,16,17,15.90
2013,04,24,16,18,15.80
2013,04,24,16,19,15.80
2013,04,24,16,20,15.70
2013,04,24,16,21,15.60
2013,04,24,16,22,15.50
2013,04,24,16,23,15.50
2013,04,24,16,24,15.30
2013,04,24,16,25,15.30
2013,04,24,16,26,15.30
2013,04,24,16,27,15.20
2013,04,24,16,28,15.10
2013,04,24,16,29,15.10
2013,04,24,16,30,15.10
2013,04,24,16,31,15.10
2013,04,24,16,32,15.20
2013,04,24,16,33,15.30
2013,04,24,16,34,15.40
2013,04,24,16,35,15.50
2013,04,24,16,36,15.60
2013,04,24,16,37,15.70
2013,04,24,16,38,15.80
2013,04,24,16,39,15.80
2013,04,24,16,40,15.80
2013,04,24,16,41,15.70
2013,04,24,16,42,15.60
2013,04,24,16,43,15.50
2013,04,24,16,44,15.50
2013,04,24,16,45,15.40
2013,04,24,16,46,15.50
2013,04,24,16,47,15.50
2013,04,24,16,48,15.60
2013,04,24,16,49,15.70
2013,04,24,16,50,15.70
2013,04,24,16,51,15.60
2013,04,24,16,52,15.50
2013,04,24,16,53,15.50
2013,04,24,16,54,15.40
2013,04,24,16,55,15.30
2013,04,24,16,56,15.30
2013,04,24,16,57,15.10
2013,04,24,16,58,15.10
2013,04,24,16,59,15.00
2013,04,24,17,00,15.00
2013,04,24,17,01,15.00
2013,04,24,17,02,15.10
2013,04,24,17,03,15.10
2013,04,24,17,04,15.20
2013,04,24,17,05,15.30
2013,04,24,17,06,15.30
2013,04,24,17,07,15.30
2013,04,24,17,08,15.50
2013,04,24,17,09,15.60
2013,04,24,17,10,15.70
2013,04,24,17,11,15.70
2013,04,24,17,12,15.80
2013,04,24,17,13,15.90
2013,04,24,17,14,16.10
2013,04,24,17,15,15.90
2013,04,24,17,16,15.90
2013,04,24,17,17,16.00
2013,04,24,17,18,16.10
2013,04,24,17,19,16.10
2013,04,24,17,20,16.20
2013,04,24,17,21,16.30
2013,04,24,17,22,16.40
2013,04,24,17,23,16.40
2013,04,24,17,24,16.50
2013,04,24,17,25,16.60
2013,04,24,17,26,16.70
2013,04,24,17,27,16.70
2013,04,24,17,28,16.70
2013,04,24,17,29,16.70
2013,04,24,17,30,16.70
2013,04,24,17,31,16.80
2013,04,24,17,32,16.90
2013,04,24,17,33,16.80
2013,04,24,17,34,16.80
2013,04,24,17,35,16.80
2013,04,24,17,36,16.90
2013,04,24,17,37,16.90
2013,04,24,17,38,17.00
2013,04,24,17,39,17.10